STARLETTE

Last updated on July 6, 2021, 3:43 p.m. UTC

1 07646U 75010A   21186.88988852 -.00000138  00000-0  25904-5 0  9998
2 07646  49.8257  38.0701 0205744 212.7437 146.0563 13.82309233344546
UTC
Height (km)
Latitude
Longitude
Inclination
Orbital Period
UTC large
Height (km)
Speed (km/s)
/
Latitude / Longitude
Inclination (degrees)
Orbital Period (minutes)
Azimuth
Elevation
Range (km)
Doppler Factor
iOS Compass Heading
iOS Angle